Henderson, MN (56044)

3:10 AM CST on February 22, 2017 (GMT -0600)
MMN075 | | Change Station
Active Advisory: Winter Storm Watch

Elev 977 ft 44.57 °N, 93.84 °W | Updated 1 minute ago

Rain
Rain
39.0 °F
Feels Like 39.0 °F
N
2.0
Wind Variable Wind from WNW
Gusts 9.0 mph

Today
High -- | Low -- °F
--% Chance of Precip.
Yesterday
High -- | Low -- °F
Precip. -- in
Pressure 29.64 in
Visibility 4.0 miles
Clouds Few 5500 ft
Scattered Clouds 7500 ft
Mostly Cloudy 11000 ft
Dew Point 39.0 °F
Humidity 98%
Rainfall 0.01 in
Snow Depth Not available.
7:04 AM 5:54 PM
Waning Crescent, 18% visible
METAR KFCM 220853Z AUTO 00000KT 4SM BR FEW055 SCT075 BKN110 05/03 A2963 RMK AO2 SLP037 T00500033 58009
Pressure 29.64 in
Visibility 4.0 miles
Clouds Few 5500 ft
Scattered Clouds 7500 ft
Mostly Cloudy 11000 ft
Dew Point 39.0 °F
Humidity 98%
Rainfall 0.01 in
Snow Depth Not available.
7:04 AM 5:54 PM
Waning Crescent, 18% visible
METAR KFCM 220853Z AUTO 00000KT 4SM BR FEW055 SCT075 BKN110 05/03 A2963 RMK AO2 SLP037 T00500033 58009

Get Your Daily Forecast Email!

Thanks for signing up!

Be on the lookout for a verification email in your inbox.

You'll start receiving the daily forecast at 8 AM.

×

10-Day Weather Forecast

Almanac

Astronomy

Feb. 22, 2017 Rise Set
Actual Time
Civil Twilight
Nautical Twilight
Astronomical Twilight
Moon
Length of Visible Light
Length of Day
Tomorrow will be .
, % of the Moon is Illuminated

Today's Extremes

State Highs State Lows

Community

WunderPhotos

Upload Photos

1,962,540 photos uploaded!

WunderBlog® & News

Nearby

Air Quality

  Air Quality AQ Index Pollutant
Not available.

Snow Depth

Station Depth Elevation

Earthquake Activity

City Distance Mag. Time & Date
Minimum magnitude displayed is 2.5.

Coastal Water Temperatures

Place Temperature

Stations

Nearby Weather Stations

Station Location Temp. Windchill Dew Point Humidity Wind Precip. Elev Updated Type
                   

Watches & Warnings

Winter Storm Watch
Issued: 9:29 PM CST Feb. 21, 2017 – National Weather Service

... Winter Storm Watch remains in effect from Thursday evening
through Friday afternoon...

* timing... rain will turn to heavy snow Thursday evening and
continue through Friday.

* Snow accumulations... 6 to 12 inches are likely, with amounts in
excess of 12 inches possible.

* Winds... northeast to northwest 20 to 30 mph with gusts to 40
mph resulting in considerable blowing snow and possible
blizzard conditions.

Precautionary/preparedness actions...

A Winter Storm Watch means there is a potential for significant
snow... sleet... or ice accumulations that may impact travel.
Continue to monitor the latest forecasts.